EFIV Weather Reports


Display with metric or nautical units.
time (UTC)temp
F
wind
direction
speed
MPH
gust
MPH
rain 1hr
in
rain 24hr
in
rain mn
in
humidity
%
barometer
mb
20260504110719 47 227 19.0 27.0 0.00 0.00 0.00 29 999.1
20260504080718 44 199 14.0 20.0 0.00 0.00 0.00 32 1000.3
20260504050717 36 243 6.0 9.0 0.00 0.00 0.00 54 1002.5
20260504044716 34 272 4.0 8.0 0.00 0.00 0.00 57 1002.6
20260504042717 33 256 4.0 6.0 0.00 0.00 0.00 60 1002.7
20260504040717 32 232 6.0 8.0 0.00 0.00 0.00 64 1002.8
20260504034717 31 223 5.0 8.0 0.00 0.00 0.00 67 1002.9
20260504032717 30 247 6.0 8.0 0.00 0.00 0.00 69 1003.0
20260504030717 29 236 8.0 10.0 0.00 0.00 0.00 72 1003.2
20260504024716 28 254 5.0 7.0 0.00 0.00 0.00 74 1003.2
20260504022717 27 244 6.0 7.0 0.00 0.00 0.00 77 1003.4
20260504020717 26 249 6.0 8.0 0.00 0.00 0.00 79 1003.6
20260504014717 26 237 6.0 7.0 0.00 0.00 0.00 81 1003.7
20260504012717 26 221 6.0 7.0 0.00 0.00 0.00 78 1003.6
20260504010718 27 236 4.0 5.0 0.00 0.00 0.00 76 1003.5
20260504004717 27 225 6.0 8.0 0.00 0.00 0.00 75 1003.6
20260504002718 28 218 8.0 9.0 0.00 0.00 0.00 73 1003.6
20260504000717 28 222 7.0 9.0 0.00 0.00 0.00 72 1003.6
20260503234717 28 234 8.0 11.0 0.00 0.00 0.00 75 1003.7
20260503232717 28 227 6.0 8.0 0.00 0.00 0.00 72 1003.6
20260503230716 29 236 7.0 10.0 0.00 0.00 0.00 70 1003.3
20260503224716 29 229 9.0 10.0 0.00 0.00 0.00 69 1003.2
20260503222716 29 231 5.0 7.0 0.00 0.00 0.00 67 1003.4
20260503220716 28 245 3.0 4.0 0.00 0.00 0.00 68 1003.3
20260503214716 29 284 4.0 5.0 0.00 0.00 0.00 66 1003.2
20260503212716 31 228 5.0 7.0 0.00 0.00 0.00 62 1002.9
20260503210716 34 219 7.0 9.0 0.00 0.00 0.00 55 1002.9
20260503204716 34 229 4.0 5.0 0.00 0.00 0.00 53 1003.0
20260503202716 35 202 4.0 9.0 0.00 0.00 0.00 51 1003.0
20260503200716 37 250 8.0 15.0 0.00 0.00 0.00 45 1002.9
20260503194715 37 281 6.0 14.0 0.00 0.00 0.00 47 1002.9
20260503192715 36 224 4.0 6.0 0.00 0.00 0.00 47 1002.9
20260503190715 37 257 6.0 10.0 0.00 0.00 0.00 46 1002.8
20260503184716 37 256 9.0 16.0 0.00 0.00 0.00 43 1002.8
20260503182716 38 278 7.0 13.0 0.00 0.00 0.00 41 1002.7
20260503180715 37 235 6.0 9.0 0.00 0.00 0.00 43 1002.8
20260503174716 37 281 6.0 9.0 0.00 0.00 0.00 40 1002.7
20260503172721 38 277 9.0 13.0 0.00 0.00 0.00 39 1002.6
20260503170715 39 270 12.0 17.0 0.00 0.00 0.00 37 1002.5
20260503150714 41 263 19.0 27.0 0.00 0.00 0.00 30 1002.1
20260503130714 40 291 19.0 27.0 0.00 0.00 0.00 35 1002.3